GFSNGP_sfc_temp_273.txt.gz
Temp
77 77 78 78 78 73 73 78 73 78 74 82 86 84 78 80 79 77 77 77 77 73 73 74 74 74 75 75 76 77 76 75 74 74 74 74 73 73 73 74 74 73 72 72
72 74 75 75 76 77 76 74 75 77 75 90 85 78 78 78 77 76 77 78 78 77 76 76 75 74 75 75 75 76 75 74 73 72 72 72 71 71 71 71 71 72 71 71
68 71 72 69 78 78 80 80 81 76 85 85 83 78 77 78 80 78 78 79 78 78 78 78 77 77 76 75 75 74 73 72 72 72 71 70 70 70 69 69 69 69 69 70
67 69 61 78 79 81 78 80 83 84 84 82 83 82 80 82 82 81 79 79 78 80 79 79 80 80 78 77 74 73 72 72 72 71 70 69 69 68 67 68 67 68 68 68
66 67 69 76 75 77 77 79 84 82 84 79 77 78 78 81 84 84 82 82 81 81 80 78 78 77 74 74 74 73 72 72 72 71 69 68 67 67 67 67 67 67 69 68
64 64 62 76 74 75 76 74 76 77 78 78 78 79 87 80 84 86 86 85 82 81 80 78 76 77 75 74 73 73 72 71 71 70 69 68 67 66 66 67 67 70 68 68
66 66 71 76 75 76 68 75 76 76 76 78 77 83 80 85 83 86 84 82 81 81 78 77 77 77 75 74 74 72 71 71 70 69 68 67 66 66 66 66 67 67 65 66
63 63 62 76 72 72 75 75 75 76 77 76 79 81 80 82 82 82 81 80 81 78 76 76 76 76 73 71 70 69 69 69 68 68 70 68 66 65 66 67 66 66 65 67
70 72 73 75 77 79 76 74 75 75 79 79 80 82 79 80 81 82 81 79 81 77 70 72 75 75 71 66 67 69 68 67 67 67 67 67 67 66 69 68 69 68 69 69
66 74 72 76 78 77 77 76 77 78 78 79 80 81 79 79 80 80 79 78 76 71 68 68 70 72 69 69 69 69 67 67 67 67 66 67 70 70 70 71 70 69 68 68
66 71 73 75 75 76 76 77 78 78 78 79 80 78 78 77 77 76 73 70 70 68 67 65 68 67 70 69 69 69 68 67 67 68 67 66 66 65 68 66 65 69 69 67
70 70 69 73 74 74 74 74 76 75 76 79 79 77 76 75 74 69 68 68 67 65 65 62 62 65 67 69 69 68 67 67 67 69 69 69 69 66 50 50 49 49 50 57
73 71 71 73 76 75 74 74 75 76 76 76 76 76 74 71 68 63 66 65 65 65 65 61 61 61 67 67 68 67 67 66 67 68 70 68 68 68 67 61 52 49 47 47
74 72 70 75 75 76 76 74 71 75 75 74 73 72 71 68 64 65 65 64 62 60 63 63 65 63 65 67 66 66 67 57 70 70 71 69 69 69 70 68 67 67 55 52
74 74 76 79 76 75 76 76 74 72 71 70 72 69 69 65 63 63 63 64 61 59 60 63 62 62 66 67 66 67 69 70 70 71 70 67 70 69 69 68 67 67 67 60
74 74 73 73 75 74 75 75 74 70 70 70 69 68 67 65 62 62 60 59 58 59 61 62 63 64 66 67 67 69 68 61 64 71 71 69 69 71 70 67 67 67 67 67
70 72 70 70 72 72 72 76 77 72 71 70 69 69 67 66 63 59 56 57 57 59 63 63 63 64 66 67 69 70 71 70 61 70 70 71 72 70 68 67 67 67 68 67
70 76 78 77 74 73 72 74 75 72 71 71 68 67 64 64 63 60 58 56 56 57 62 64 65 65 67 68 69 70 71 70 70 70 70 70 70 69 68 67 67 67 68 68
71 71 75 75 75 74 75 74 73 72 70 69 68 66 64 64 62 59 57 57 58 60 62 65 61 65 67 67 67 69 70 71 69 69 69 62 70 70 69 68 68 68 68 68
71 73 73 75 74 75 74 74 72 70 70 70 70 66 60 60 59 57 59 59 63 67 66 67 67 67 67 67 63 72 71 72 70 70 70 71 70 68 68 60 65 68 69 69
69 71 73 74 74 75 75 73 71 70 70 69 68 68 63 58 59 58 58 60 64 64 68 62 68 69 69 68 68 72 72 70 70 70 71 70 69 69 69 69 69 69 69 69
68 70 71 72 74 74 75 74 72 70 68 66 67 65 62 60 60 61 67 69 68 57 67 69 70 65 69 63 70 71 72 70 70 71 71 70 69 69 69 69 69 69 69 68
68 69 71 71 71 72 72 74 72 69 67 65 64 63 63 63 62 65 64 67 69 62 70 70 63 58 59 69 69 70 70 70 70 71 71 70 69 69 69 69 69 68 68 68
66 68 68 69 70 69 67 67 69 70 67 66 67 67 68 67 69 73 70 60 58 58 69 67 61 56 58 70 70 69 69 70 70 70 69 54 68 68 68 69 69 70 69 66
66 67 67 67 68 68 68 66 66 65 66 67 67 69 71 73 72 71 72 70 56 63 70 55 56 55 70 70 70 69 69 70 70 69 70 70 70 69 69 70 69 69 67 68
65 66 68 67 66 63 64 64 62 67 69 68 69 71 73 73 73 71 71 65 68 63 71 67 68 70 72 72 71 70 70 71 70 71 67 70 69 69 70 70 70 69 68 68
66 56 66 65 65 63 63 64 63 65 68 71 69 71 71 73 70 70 66 71 71 72 71 70 71 67 72 72 70 72 72 72 63 72 72 71 71 71 71 70 69 69 68 67

GFSNGP_sfc_temp_276.txt.gz
Temp
84 86 86 86 84 86 83 85 80 83 85 90 94 95 94 93 91 88 86 86 86 84 77 80 82 82 82 83 83 84 82 82 81 81 81 79 79 79 79 77 77 77 77 77
80 86 84 82 86 87 86 86 85 86 85 97 99 93 91 91 89 87 87 87 86 81 80 83 82 81 81 81 82 83 82 80 78 78 78 78 78 77 77 77 77 77 76 76
74 82 82 76 83 85 87 89 88 82 90 97 95 95 93 91 90 88 88 88 86 84 84 85 84 84 82 82 83 81 80 79 78 78 77 76 76 75 75 74 75 74 74 75
77 78 65 85 95 92 87 89 92 92 93 96 95 95 96 95 92 90 89 88 87 88 87 86 87 87 86 84 81 80 78 78 78 77 76 75 75 74 73 74 73 73 73 73
73 74 80 83 86 86 84 85 93 91 93 95 94 92 93 94 95 93 92 91 90 91 89 86 86 85 83 82 79 79 78 77 77 77 75 74 73 72 73 73 73 73 73 72
76 70 67 83 89 89 89 79 91 89 90 90 92 86 91 92 95 96 95 93 91 91 89 87 85 85 81 77 77 77 77 76 75 75 75 73 73 71 72 73 72 78 74 73
75 73 79 87 86 87 74 78 87 88 87 87 86 92 91 93 93 97 95 92 92 89 86 85 86 85 81 78 77 77 78 77 75 75 74 73 72 72 72 72 72 73 73 73
76 70 68 86 82 78 82 87 87 86 86 84 86 89 91 91 92 93 92 90 90 87 86 86 86 84 81 75 78 77 76 75 74 73 76 74 71 71 72 71 71 70 70 72
79 78 83 86 87 90 89 85 85 85 87 86 87 89 90 89 91 91 90 88 90 88 84 84 85 85 77 73 75 75 74 73 73 73 73 73 72 71 73 71 74 74 75 75
75 85 86 87 88 89 88 86 87 88 88 88 87 89 90 89 91 90 89 87 89 85 82 80 81 78 74 73 73 72 73 72 73 73 72 74 77 77 77 77 77 77 76 75
77 82 84 85 83 84 85 86 86 88 88 87 88 88 88 88 89 90 88 88 85 80 72 73 73 70 71 71 69 69 72 74 74 75 74 73 75 76 77 73 69 75 74 73
76 78 78 81 84 85 83 83 84 83 84 87 87 86 87 87 87 86 77 77 73 70 68 66 71 72 70 70 70 71 73 74 76 76 75 76 74 71 51 54 51 51 51 58
79 83 81 82 85 87 83 84 84 85 85 84 85 87 86 83 78 68 71 68 67 67 69 66 64 65 71 74 74 73 75 73 76 73 76 74 75 75 73 60 52 51 51 49
86 84 79 83 82 88 85 84 77 84 85 85 84 82 82 80 69 69 67 68 68 69 66 67 65 67 69 73 73 73 75 63 76 77 78 77 77 76 77 76 73 74 53 55
83 85 85 87 86 85 85 84 84 82 83 81 82 80 79 71 69 67 67 69 72 68 66 69 68 67 70 73 73 72 74 76 77 78 78 74 78 77 79 77 74 73 74 60
83 84 84 83 82 83 84 84 83 83 81 80 78 77 77 70 66 65 65 66 66 64 60 65 64 62 69 70 73 75 74 63 70 77 76 76 77 78 78 76 74 74 73 74
75 76 81 80 81 82 83 86 86 85 81 79 77 76 72 69 67 68 70 71 69 67 66 63 64 68 68 69 73 76 74 75 64 78 77 79 80 78 77 75 74 74 75 72
77 79 82 85 84 83 83 83 84 83 80 79 76 75 72 72 71 70 70 69 68 65 68 65 63 66 67 72 73 74 76 77 77 77 77 77 76 77 77 76 75 74 76 74
80 79 80 82 85 85 85 83 83 82 80 78 75 73 75 75 70 67 65 64 62 62 64 64 64 67 71 72 71 76 77 77 76 76 76 64 75 78 78 77 76 76 76 76
78 80 81 82 84 84 84 84 82 80 78 77 77 75 73 72 64 61 60 58 64 67 66 67 70 70 71 69 68 79 77 78 77 76 75 78 78 77 78 65 73 76 76 76
77 78 79 80 82 83 85 83 80 78 77 78 77 74 71 64 58 58 58 58 66 66 70 64 72 75 75 73 73 79 79 77 76 76 76 76 75 78 78 76 76 76 76 77
77 78 78 80 81 82 83 83 81 79 78 77 77 75 70 66 64 61 62 61 66 60 69 71 73 69 75 67 78 78 78 77 76 76 76 78 78 77 76 76 76 77 77 76
77 77 79 78 80 82 82 82 81 78 76 75 75 72 73 73 71 64 62 73 73 67 76 76 65 60 60 74 76 76 76 75 76 77 78 78 78 76 76 76 76 77 77 76
75 76 77 79 80 79 77 79 82 80 77 77 78 76 76 72 71 76 79 65 61 64 76 70 64 57 58 75 75 75 75 76 76 76 76 57 75 75 76 77 77 78 77 74
75 76 77 77 77 79 79 79 80 79 77 76 75 76 77 78 78 81 78 76 58 69 75 56 56 56 73 76 76 75 75 75 76 76 76 77 77 76 76 77 78 77 76 76
73 77 78 76 78 82 81 77 78 79 78 77 78 79 80 81 82 79 78 71 74 68 76 71 72 73 78 78 78 76 76 77 76 76 73 77 77 77 78 78 78 77 77 76
77 59 77 77 78 77 76 70 71 77 76 79 78 80 81 82 78 77 70 77 77 78 78 76 76 71 79 78 77 78 78 78 70 79 79 79 79 79 79 78 78 77 76 75

GFSNGP_sfc_temp_279.txt.gz
Temp
88 90 91 88 87 88 86 88 82 86 85 92 96 97 97 98 96 93 91 91 92 90 88 88 86 86 87 87 87 88 86 85 84 84 85 84 81 79 80 80 79 79 78 79
82 88 89 86 89 89 89 89 89 89 88 100 101 102 99 97 95 92 91 92 92 90 89 87 86 86 86 85 85 86 85 84 83 81 81 81 80 80 79 77 76 76 77 78
76 86 86 79 86 89 90 93 92 84 91 98 97 99 99 99 97 94 93 93 92 89 88 89 89 88 86 85 86 84 83 82 81 81 80 78 79 79 78 77 77 77 78 78
78 82 68 87 97 95 91 93 95 94 95 97 98 102 102 103 100 96 95 93 92 91 90 91 91 91 89 88 84 83 82 81 81 80 79 78 77 77 76 77 76 76 75 76
75 76 82 87 91 92 89 87 96 95 95 97 100 102 98 102 103 101 98 97 95 94 94 90 91 89 86 85 84 82 81 80 80 80 78 77 76 75 76 75 75 75 76 75
67 71 69 85 95 100 97 81 95 96 95 94 97 88 94 98 99 102 101 100 96 96 95 92 90 89 86 84 84 82 81 79 79 79 78 77 76 74 75 75 75 79 75 75
77 57 77 88 93 97 77 79 92 93 91 91 90 91 95 100 97 102 101 99 97 95 92 91 90 89 84 83 82 83 78 77 76 77 76 76 74 74 73 74 75 73 74 75
79 73 67 88 91 83 86 92 91 91 91 89 91 94 95 96 97 99 98 97 96 92 90 91 90 88 83 77 80 78 76 75 74 76 78 76 73 73 74 73 72 72 72 73
77 75 67 74 82 94 95 90 90 90 93 93 92 93 95 93 96 98 97 95 97 90 86 89 88 87 81 77 78 75 75 74 75 75 76 75 73 72 73 73 73 75 76 77
81 78 66 80 89 93 94 91 92 94 93 94 92 93 94 95 96 96 96 93 90 82 86 82 82 83 82 78 76 76 74 73 73 73 72 74 76 77 78 78 77 77 76 76
80 86 88 90 88 90 90 92 91 92 93 93 93 93 93 94 93 95 93 92 81 81 81 80 79 76 74 72 72 72 72 72 72 72 71 73 75 76 77 72 68 72 75 75
78 84 81 83 89 91 89 88 89 88 89 91 92 91 91 93 93 94 89 79 78 81 76 71 68 68 69 70 68 67 69 71 76 75 76 76 75 74 54 57 57 56 55 60
84 88 87 88 90 92 89 90 91 90 91 89 91 92 91 90 90 75 83 76 73 69 68 68 69 66 66 67 69 67 69 75 75 75 78 77 77 76 72 63 53 51 51 52
90 88 84 87 86 93 92 93 82 91 92 91 90 89 90 88 77 77 72 70 69 67 67 70 70 68 67 69 70 70 73 64 76 77 80 79 78 77 78 77 73 71 54 54
88 90 90 92 91 91 92 91 89 89 90 89 89 87 87 81 76 70 69 69 69 70 71 72 69 66 68 68 70 68 64 76 78 78 78 75 78 77 78 78 77 76 77 58
88 89 88 87 87 89 89 89 87 88 89 88 86 84 83 78 70 68 68 68 67 67 68 67 69 70 73 73 71 70 74 67 70 79 75 76 76 78 79 77 77 76 76 77
81 79 83 83 86 87 87 90 90 90 90 86 84 83 76 72 68 65 65 66 69 70 71 71 71 73 74 73 75 75 76 76 67 79 78 77 80 80 80 77 77 77 78 73
83 83 85 86 87 88 88 89 90 90 88 86 83 78 71 67 65 64 65 69 70 71 72 71 69 68 69 71 71 76 75 77 77 76 77 77 79 79 79 79 78 77 79 78
84 84 84 85 87 88 89 89 89 88 87 84 79 72 71 69 68 66 66 64 63 60 61 65 64 67 67 67 73 78 77 77 77 78 78 67 75 79 81 79 78 78 79 79
83 85 86 86 87 88 88 90 89 86 85 83 81 74 71 70 68 62 59 58 60 61 64 67 72 73 73 72 70 78 80 81 79 78 77 78 80 79 79 67 75 79 79 79
82 84 84 85 87 88 90 89 87 84 82 81 79 77 72 71 68 60 58 56 59 60 61 64 72 72 74 75 76 82 81 80 78 78 77 77 76 78 80 79 79 79 79 79
83 83 83 85 86 86 87 89 86 84 81 80 81 79 73 70 66 66 61 59 59 57 61 68 72 70 75 69 79 79 81 79 79 79 78 78 79 79 79 78 78 79 79 79
83 82 83 83 84 86 87 87 86 84 81 81 80 77 76 76 74 71 66 67 68 64 72 74 66 62 63 76 79 79 80 79 78 78 79 80 81 79 78 78 78 80 79 79
80 81 81 83 85 84 82 84 87 84 82 81 81 79 79 78 78 80 80 66 63 65 75 73 67 60 60 77 78 77 77 78 78 78 79 60 78 78 78 79 79 80 80 76
79 81 82 82 81 84 83 84 85 83 81 80 79 80 82 84 82 82 82 77 61 68 77 58 59 59 73 77 77 76 77 77 78 78 79 79 79 78 78 79 78 79 79 79
78 81 83 82 83 84 88 86 84 86 84 81 82 83 85 84 84 84 81 73 76 69 77 71 73 73 77 79 79 78 78 79 78 78 76 79 79 79 79 78 79 79 79 79
81 64 82 81 83 83 84 84 84 84 82 85 83 84 85 85 83 80 72 77 78 79 77 75 76 72 80 81 80 80 80 80 73 81 83 81 81 81 80 81 80 81 80 79

GFSNGP_sfc_temp_285.txt.gz
Temp
70 75 77 76 77 78 70 69 61 65 67 70 74 76 81 81 81 82 80 81 78 77 76 76 77 78 78 78 79 79 76 74 73 73 74 73 72 71 71 70 70 69 69 68
64 75 77 74 79 79 77 78 74 72 69 78 82 85 82 83 83 81 81 81 80 79 78 78 78 77 78 77 77 76 74 72 73 72 72 71 70 70 69 69 69 68 67 64
55 70 70 65 72 76 76 75 75 68 75 85 81 84 83 83 85 83 83 84 81 81 80 79 79 79 77 76 75 74 73 72 72 72 71 70 70 72 72 70 67 65 65 62
53 60 51 71 81 83 80 82 82 79 81 84 85 82 85 85 84 84 85 85 83 83 83 82 82 80 78 77 75 73 72 72 71 71 70 70 72 71 68 66 65 63 63 61
53 53 66 75 74 73 68 71 66 68 83 86 85 83 79 87 87 84 86 86 85 86 85 84 82 80 78 76 74 73 71 71 70 70 72 71 70 68 65 64 63 62 63 61
56 53 53 60 70 76 76 61 68 75 79 80 80 69 72 84 88 88 86 88 87 86 85 83 82 79 78 75 73 72 71 71 71 71 73 70 69 64 64 63 62 63 63 62
53 51 60 67 73 77 58 57 67 70 75 78 73 74 79 84 84 85 84 86 86 86 83 82 78 75 73 75 73 73 72 70 69 69 69 69 65 64 62 62 62 60 62 62
51 47 51 68 71 62 63 63 64 66 73 76 79 81 83 83 83 83 84 83 85 84 82 79 76 75 72 72 74 72 71 69 69 71 71 67 65 63 62 61 61 60 59 60
55 56 63 66 64 69 66 63 67 63 74 80 81 82 81 80 82 82 81 82 86 83 77 77 75 74 73 70 72 71 69 68 69 68 67 67 64 63 63 63 59 59 60 58
57 62 64 67 70 72 73 71 72 74 83 84 80 83 81 81 81 80 81 81 79 78 73 69 71 72 70 72 72 70 68 68 69 68 65 66 65 65 64 62 60 57 56 55
56 61 63 67 71 71 73 78 76 74 84 85 83 80 78 79 78 77 78 77 78 73 69 69 70 69 69 68 68 67 65 64 62 61 63 63 61 62 63 60 59 58 56 56
52 61 61 65 71 71 70 70 80 81 81 84 83 81 81 75 74 74 74 73 71 70 69 68 68 67 67 67 66 66 64 62 61 61 62 63 62 61 57 56 54 55 55 57
65 69 67 70 75 73 68 71 78 83 82 81 84 81 79 74 72 67 68 70 68 68 68 68 67 66 65 65 66 66 65 62 64 62 63 63 63 60 57 55 53 52 53 54
71 69 68 73 72 77 74 77 80 85 85 84 81 81 78 73 70 68 67 68 68 68 67 67 67 64 65 66 67 65 63 60 62 64 64 62 61 60 58 57 56 57 55 52
76 79 78 78 79 79 81 81 80 80 80 80 80 78 75 69 66 65 66 67 68 68 67 67 65 65 67 66 65 63 63 65 64 63 64 63 62 61 61 58 58 59 57 54
77 78 79 77 76 77 78 79 79 79 78 79 72 71 69 68 67 66 67 66 65 65 65 65 65 65 66 66 65 65 65 64 63 64 64 64 62 62 62 60 60 59 59 58
72 70 72 72 73 75 76 78 76 78 80 71 69 69 67 65 64 67 64 65 65 64 65 65 64 66 67 67 66 63 61 64 65 63 65 62 62 62 61 60 60 60 61 60
77 77 76 75 74 74 75 76 77 76 74 72 69 67 66 64 62 62 62 63 63 63 63 64 64 64 65 65 67 64 61 63 62 65 62 60 61 61 61 63 61 59 60 61
80 78 78 78 77 75 75 75 75 74 68 69 68 65 64 63 63 61 61 60 58 58 58 61 63 63 63 64 65 64 65 66 66 60 60 61 61 63 61 61 61 61 61 62
79 80 79 78 79 77 76 77 76 72 68 69 66 64 61 61 61 59 58 56 56 59 60 62 63 61 63 65 67 66 66 64 62 60 61 61 61 61 61 61 62 62 61 63
78 79 78 77 78 79 78 77 75 72 70 69 65 63 61 61 60 59 56 54 56 58 59 60 59 59 58 60 63 65 65 63 62 61 62 61 60 63 61 62 63 63 67 66
76 76 76 76 75 76 78 77 75 73 70 67 66 64 61 60 60 61 60 57 57 57 58 58 59 60 61 63 63 65 65 65 63 61 61 61 62 61 61 62 62 64 66 64
75 75 75 74 74 74 76 76 76 74 70 68 67 65 63 63 64 58 54 57 58 57 59 59 60 60 60 60 63 62 65 65 63 62 63 63 62 62 62 62 62 63 63 61
72 73 73 75 75 74 72 73 75 75 72 70 69 66 65 63 64 64 62 58 57 56 60 60 59 58 58 60 61 62 62 63 61 61 62 58 62 62 61 62 62 65 67 61
72 72 73 72 71 71 73 75 74 71 70 70 69 67 66 68 67 67 64 63 56 58 61 58 59 58 57 61 63 62 63 62 61 62 62 62 62 62 63 64 65 62 61 65
71 70 71 73 72 72 72 68 69 68 68 67 68 68 66 69 72 68 65 61 60 59 62 61 59 58 61 63 64 63 63 62 62 62 62 63 62 63 66 65 63 63 62 62
71 64 71 70 71 72 72 68 64 61 60 61 64 67 67 69 70 67 63 64 62 62 63 62 63 62 62 63 63 63 63 62 61 64 64 63 63 63 64 67 64 63 61 60

GFSNGP_sfc_temp_291.txt.gz
Temp
55 63 63 64 62 62 57 55 55 61 60 66 69 72 74 76 73 75 74 73 72 69 68 70 71 73 74 75 75 75 74 73 72 71 71 69 68 67 67 66 65 63 62 61
53 62 63 57 62 62 61 59 59 61 60 63 68 71 72 75 75 74 74 74 74 72 71 71 72 73 74 74 74 75 74 72 70 70 69 68 67 66 66 65 63 62 60 60
50 57 59 54 58 59 59 59 55 52 58 65 65 71 74 73 74 75 75 75 74 72 72 72 73 75 74 74 74 74 73 71 70 70 69 68 67 66 65 64 62 60 59 59
50 52 46 57 63 65 63 65 63 62 64 65 67 70 75 74 74 75 76 76 75 73 73 73 75 76 75 74 73 72 70 69 69 69 68 68 67 65 63 61 61 59 58 57
49 46 52 58 62 60 58 59 65 62 65 66 70 74 73 77 75 76 76 77 77 77 76 75 75 75 73 73 72 70 69 69 69 69 68 69 66 64 61 60 59 58 57 56
47 47 47 56 65 68 66 54 66 65 63 63 66 64 66 74 76 76 78 78 76 76 76 75 74 74 73 71 70 69 69 69 70 69 68 67 65 63 61 61 60 59 58 58
45 45 52 61 65 67 53 56 65 65 63 62 59 64 71 73 76 76 74 77 76 76 75 75 74 74 71 70 69 69 69 68 68 69 69 66 63 62 61 61 60 57 59 60
44 44 47 64 63 60 61 61 64 63 63 62 63 65 71 72 73 75 74 74 74 73 74 74 74 72 70 69 69 69 68 67 67 66 66 65 64 62 61 60 59 56 59 59
51 52 58 60 62 65 63 62 64 62 66 67 66 66 71 71 72 73 72 73 74 72 70 71 72 72 68 69 69 69 67 66 65 64 64 65 63 61 60 58 58 56 60 59
53 56 58 61 64 65 65 64 67 67 70 71 72 72 73 72 71 71 72 70 69 69 68 69 69 69 70 70 68 67 65 65 65 63 62 61 61 60 60 60 59 59 59 55
50 56 59 63 62 67 67 70 69 70 72 72 73 72 75 72 70 70 69 69 68 67 67 67 67 66 68 67 66 66 66 65 64 61 60 62 62 62 63 63 62 61 56 55
51 59 59 62 64 67 66 69 72 69 71 73 73 74 71 68 68 68 68 66 66 66 68 68 64 64 67 67 67 67 65 64 61 63 66 62 60 56 52 55 54 52 51 54
61 62 61 65 67 69 67 68 70 70 71 69 71 72 70 66 68 63 65 65 65 66 68 68 67 67 67 68 66 65 64 61 64 63 62 59 58 58 58 57 52 51 49 49
64 61 62 67 67 70 70 73 70 72 71 71 71 71 70 66 65 66 65 65 66 67 67 67 66 66 67 63 63 63 62 59 64 63 62 60 60 62 60 59 56 56 53 50
67 65 66 70 66 69 70 70 69 69 69 70 69 68 66 64 63 64 64 64 64 67 66 66 66 62 63 63 63 63 61 60 61 60 62 62 60 58 59 56 57 53 52 54
67 65 65 63 66 67 70 67 65 65 67 68 66 65 65 64 63 62 62 62 64 65 65 65 63 63 64 64 63 62 62 61 60 59 59 59 58 58 57 57 53 53 54 56
60 62 63 63 66 67 69 70 70 69 66 65 64 65 64 62 61 60 61 62 65 66 66 64 63 65 65 64 63 62 61 61 62 60 61 61 60 59 56 54 54 54 54 54
68 69 67 67 68 67 68 68 68 66 65 66 65 63 61 60 60 60 63 63 63 63 63 65 65 65 66 64 63 61 61 60 59 60 59 58 56 56 55 54 53 54 53 54
70 67 69 69 69 68 68 67 67 66 66 65 62 60 60 59 61 62 62 62 61 60 59 61 63 63 63 63 61 60 60 61 60 60 61 58 58 56 55 55 55 54 56 56
69 68 70 70 70 69 69 68 67 66 65 63 61 60 60 60 61 60 60 57 58 59 60 60 60 60 60 61 60 59 63 61 61 60 59 58 57 57 56 54 56 57 56 57
66 69 70 70 69 69 69 67 67 65 62 62 61 60 59 59 59 57 58 55 57 59 59 59 57 57 58 59 59 58 58 58 60 59 60 58 56 56 56 56 57 58 58 58
59 58 65 69 67 67 67 65 64 62 61 61 60 60 59 57 54 53 54 54 54 56 58 58 60 60 59 59 58 57 57 57 56 55 58 58 56 56 56 57 57 58 58 57
58 58 58 62 66 65 64 64 63 62 61 60 59 59 58 58 55 53 52 54 55 54 58 58 60 59 58 58 57 56 56 55 55 54 57 58 57 57 57 57 57 58 61 55
59 59 58 59 61 63 63 62 64 63 62 62 61 61 60 59 58 56 54 54 53 54 54 56 58 58 57 56 56 56 56 57 55 55 55 52 56 56 56 57 58 57 56 53
58 59 59 58 60 61 61 62 63 63 62 62 61 61 62 62 60 57 55 54 53 54 54 56 56 56 56 54 54 54 55 54 54 54 55 56 57 56 57 58 60 57 56 54
58 57 57 58 59 60 60 61 61 63 63 61 61 62 63 62 61 57 56 54 54 54 55 55 56 57 55 54 55 55 54 54 54 55 56 57 57 57 58 57 57 57 56 54
57 52 57 58 60 60 60 59 61 62 61 63 62 63 63 63 60 57 56 55 55 55 54 54 54 55 55 55 54 55 56 57 54 57 57 57 57 57 58 58 59 58 55 53